Location: Felsheim
(48.7267°N, 10.7386°E)
Time: 01:47:56
(UTC+00:00)

Resurs 01 Rocket - Pass Details

Date: 09 April 2020
Orbit: 634 x 644 km, 98.0° (Epoch: 03 June)

Event Time Altitude Azimuth Distance (km) Brightness Sun altitude
Exits shadow 19:17:45 16° 144° (SE) 1,660 3.2 -12.8°
Maximum altitude 19:21:07 54° 71° (ENE) 774 1.8 -13.2°
Drops below altitude 10° 19:25:27 10° 354° (N) 2,039 4.7 -13.9°
Sets 19:27:42 0° 350° (N) 2,954 5.7 -14.2°
